Home > Weather > Birmingham > Past weeks

Flag for USA Past Weather in Birmingham, Alabama, USA — Yesterday and Last 2 Weeks

Now
88 °F

Scattered clouds.


Feels Like: 97 °F
Forecast: 75 / 89 °F
Wind: 8 mph from Northwest

Location: Birmingham International Airport

Current Time: Jul 30, 2016 at 11:59:17 AM

Latest Report: Jul 30, 2016 at 10:53 AM


Visibility: 10 mi

Pressure: 30.04 "Hg

Humidity: 63%

Dew Point: 74 °F

Location of BirminghamLocation

Past Weather in Birmingham — Graph

°F

Birmingham Temperature Yesterday

Maximum temperature yesterday: 88 °F (at 1:53 PM)
Minimum temperature yesterday: 76 °F (at 12:53 AM)
Average temperature yesterday: 81 °F

High & Low Weather Summary for the Past Weeks

 TemperatureHumidityPressure
High97 °F (Jul 21, 2:53 PM)97% (Jul 17, 9:53 PM)30.29 "Hg (Jul 17, 9:53 PM)
Low73 °F (Jul 16, 5:53 AM)39% (Jul 20, 3:53 PM)29.94 "Hg (Jul 26, 4:53 PM)
Average82 °F74%30.07 "Hg
* Reported Jul 15 10:53 AM — Jul 30 10:53 AM, Birmingham, Weather by CustomWeather, © 2016

Note: Actual official high and low records may vary slightly from our data, if they occured in-between our weather recording intervals... More about our weather records

Advertising

Birmingham Weather History for the Previous 24 Hours

Scroll right to see more
 ConditionsComfort  
Time TempWeatherWind HumidityBarometerVisibility
10:53 AM
Sat, Jul 30
88 °FScattered clouds.8 mph63%30.04 "Hg10 mi
9:53 AM85 °FPartly sunny.10 mph72%30.05 "Hg10 mi
8:53 AM83 °FScattered clouds.6 mph74%30.05 "Hg10 mi
7:53 AM80 °FPassing clouds.6 mph79%30.03 "Hg10 mi
6:53 AM79 °FPassing clouds.7 mph79%30.03 "Hg10 mi
5:53 AM78 °FPassing clouds.7 mph79%30.01 "Hg10 mi
4:53 AM79 °FPassing clouds.7 mph79%29.99 "Hg10 mi
3:53 AM79 °FPassing clouds.6 mph79%29.97 "Hg10 mi
2:53 AM79 °FClear.3 mph79%29.98 "Hg10 mi
1:53 AM80 °FClear.6 mph76%29.97 "Hg10 mi
12:53 AM79 °FClear.No wind82%29.98 "Hg10 mi
11:53 PM
Fri, Jul 29
80 °FPassing clouds.5 mph79%30.00 "Hg10 mi
10:53 PM80 °FPassing clouds.No wind79%30.02 "Hg10 mi
9:53 PM80 °FPassing clouds.No wind81%30.00 "Hg10 mi
8:53 PM81 °FPassing clouds.No wind77%30.00 "Hg10 mi
7:53 PM83 °FPartly sunny.No wind68%29.97 "Hg10 mi
6:53 PM83 °FPartly sunny.8 mph68%29.96 "Hg10 mi
5:53 PM88 °FBroken clouds.9 mph55%29.96 "Hg10 mi
4:53 PM88 °FScattered clouds.6 mph57%29.96 "Hg10 mi
3:53 PM88 °FScattered clouds.8 mph57%29.96 "Hg10 mi
2:53 PM87 °FMostly cloudy.6 mph59%29.98 "Hg10 mi
1:53 PM88 °FBroken clouds.9 mph57%30.00 "Hg10 mi
12:53 PM86 °FPartly sunny.6 mph63%30.02 "Hg10 mi
11:53 AM85 °FPartly sunny.8 mph63%30.03 "Hg10 mi
Weather by CustomWeather, © 2016

See weather overviewHow to use our weather pages